Theta_e
349 349 349 349 347 345 341 336 333 330 328 327 327 327 326 326 325 325 325 326 326 326 326 328 329 329 329 328 329 331 333 335 338 338 338 338 339 339 338 339 339 339 340 341 341 342 342 341 339 339 340 340 341 343 344 343 340 338 340 340 340 340 342 344 342 337 334 334 332 331 333 332 331 332 332 332 335 338 342 349 351 350 349 349 349
351 351 351 350 349 348 345 341 338 335 332 329 328 327 326 326 326 326 325 326 326 326 326 328 329 330 329 329 329 329 331 334 336 338 339 338 339 339 338 338 338 337 338 339 339 340 341 342 341 340 339 337 337 339 340 339 337 338 340 340 338 340 344 347 348 343 335 331 331 331 332 332 332 332 332 332 335 338 345 352 354 353 352 351 349
351 352 352 352 351 350 349 346 342 339 337 335 331 329 328 327 326 326 326 326 326 327 327 328 329 330 329 329 329 329 330 331 334 337 339 339 338 338 338 337 337 336 335 336 338 339 339 340 340 340 340 339 338 338 338 338 339 340 339 339 338 338 341 345 348 348 341 333 330 331 332 332 332 331 331 332 334 338 346 354 356 357 356 352 349
353 353 353 353 353 352 351 349 347 344 342 339 336 333 331 330 328 327 327 327 327 327 328 329 329 330 331 330 330 331 331 331 332 335 336 338 338 338 338 338 337 336 335 335 336 336 337 338 339 340 339 339 338 338 338 339 340 339 338 338 337 337 339 342 346 349 347 339 332 332 332 332 330 329 330 332 333 337 347 354 357 358 357 354 350
354 354 354 354 354 354 353 352 350 347 346 343 340 337 335 333 332 331 330 329 330 330 330 330 331 331 332 331 330 331 332 332 332 332 334 335 337 337 338 337 337 337 335 335 335 335 335 336 337 337 336 335 335 336 337 338 338 337 337 336 336 335 335 339 344 349 349 342 333 332 332 330 329 328 329 331 333 335 344 353 355 355 355 354 351
355 355 355 355 355 355 355 354 352 351 348 346 343 341 339 337 335 334 333 332 332 333 333 332 333 333 332 331 331 330 331 332 333 332 333 334 335 336 337 337 336 335 335 335 335 335 336 336 336 336 335 334 333 333 335 335 335 334 334 333 334 334 333 335 340 344 344 340 333 330 330 329 328 328 329 331 332 335 343 350 351 351 354 354 351
357 357 357 357 357 356 356 355 354 353 350 348 346 344 342 340 338 338 337 336 335 334 335 335 335 335 333 331 331 332 332 333 333 333 333 334 334 335 335 336 336 335 334 333 334 334 335 336 337 337 337 335 333 332 331 331 331 330 331 331 331 332 334 335 336 339 338 335 331 328 328 328 327 328 329 331 332 337 345 350 349 349 352 353 350
358 358 358 358 358 358 357 357 356 354 352 350 348 346 345 343 341 340 339 338 337 337 337 337 337 336 335 332 332 332 334 334 334 334 334 334 335 335 335 335 335 335 334 332 332 333 333 333 334 335 335 335 333 332 331 330 331 330 330 331 332 333 334 334 334 334 332 331 329 328 327 327 327 328 330 331 332 337 345 350 350 347 347 348 350
359 359 359 359 359 358 358 358 357 356 355 353 351 349 347 346 344 342 341 340 339 338 338 339 339 338 337 335 334 334 335 335 335 334 334 334 334 335 335 335 335 335 335 333 332 332 331 331 331 331 332 332 332 332 331 332 332 332 332 332 332 333 332 332 331 329 329 330 328 328 327 326 327 330 331 334 334 337 345 351 349 346 345 346 352
359 359 360 359 359 359 359 359 358 358 357 355 354 352 349 348 347 345 343 341 340 340 340 341 341 340 339 338 338 337 337 336 335 334 333 333 333 334 334 335 335 335 335 333 332 331 330 329 329 329 329 330 330 331 331 331 331 331 333 334 336 336 335 334 330 329 330 330 328 329 329 326 327 331 333 335 336 340 345 348 346 345 348 350 352
360 360 360 360 360 360 360 360 359 359 358 357 356 355 352 350 349 347 345 343 342 342 342 343 343 341 340 339 339 340 338 336 334 334 333 332 332 333 333 333 333 333 333 333 332 330 330 330 330 329 328 329 329 330 330 330 330 333 338 342 343 344 343 340 335 332 332 331 329 330 330 328 329 332 335 339 341 343 344 345 345 348 352 353 353
360 360 361 361 361 361 361 361 361 360 360 359 358 356 354 353 351 349 347 346 345 344 344 345 345 343 342 341 340 340 339 336 334 334 333 332 332 332 332 333 333 333 333 333 332 331 331 331 330 330 329 329 328 328 329 330 331 334 341 346 347 348 347 344 339 335 334 333 332 332 332 332 331 333 340 345 346 346 346 348 351 352 354 355 356
359 360 361 361 361 362 362 362 362 362 361 360 359 358 356 354 352 350 349 347 347 346 346 346 345 345 343 342 342 342 340 338 336 335 334 334 333 333 333 333 333 333 332 332 332 331 330 331 331 330 330 329 328 327 327 329 330 333 339 345 347 347 346 343 339 336 336 335 334 332 333 336 334 335 344 347 347 347 349 351 353 354 355 356 356
360 361 361 362 362 362 363 363 363 363 362 362 361 359 357 355 353 351 350 349 349 348 348 348 346 346 345 343 343 342 340 338 337 337 336 335 334 335 335 335 334 333 333 332 332 332 331 331 331 331 330 331 330 329 328 328 329 332 339 345 346 344 342 340 338 337 337 336 336 334 335 337 336 336 343 346 345 347 351 353 353 355 356 354 355
360 362 362 363 363 363 364 364 364 364 364 363 362 360 358 356 354 352 351 350 350 350 349 349 348 346 346 344 344 343 340 337 338 338 338 337 336 337 338 338 337 335 334 333 333 332 331 331 331 331 331 331 331 331 330 330 329 332 339 342 342 341 340 338 337 338 340 341 341 339 337 337 337 336 338 341 344 348 353 355 354 356 355 352 351
360 362 364 364 365 364 365 365 365 365 365 364 364 362 360 357 355 354 352 351 351 351 351 350 350 348 347 347 345 344 340 338 338 339 339 339 340 340 342 342 341 339 336 335 334 332 332 332 332 331 331 331 331 331 331 333 332 333 335 337 339 339 337 335 337 342 344 344 343 340 337 336 336 334 334 338 343 349 355 356 355 355 354 350 347
360 361 361 364 365 365 365 365 365 365 365 365 365 363 362 359 357 355 354 352 352 352 352 352 351 350 350 349 347 345 342 339 338 338 340 343 344 344 344 344 344 342 338 336 334 333 332 332 332 332 331 331 331 330 332 335 335 334 333 334 337 337 332 330 335 340 340 339 338 338 336 334 333 334 334 337 343 351 355 355 353 354 353 347 345
360 360 360 362 365 366 365 365 365 365 366 365 365 364 363 361 359 356 354 353 353 353 353 353 353 352 352 351 350 348 345 342 340 340 343 346 347 347 346 346 345 344 341 338 336 335 333 332 332 333 332 330 330 330 332 335 336 335 333 332 334 333 328 327 331 333 333 335 336 335 334 334 334 336 336 337 343 350 355 355 354 354 351 348 346
360 359 359 361 364 365 366 366 366 365 366 365 366 365 364 363 360 358 356 354 353 354 354 354 354 354 354 354 352 352 349 347 344 343 345 348 351 350 349 348 347 344 342 340 339 337 334 332 332 333 332 330 331 331 332 336 338 335 333 333 333 330 327 327 329 331 332 335 335 335 336 338 340 340 338 338 342 349 353 354 355 354 351 348 347
360 360 360 361 362 364 366 366 366 366 366 365 365 365 365 364 362 359 357 356 354 355 354 355 355 355 355 356 355 354 353 351 348 346 346 349 351 353 352 352 349 345 342 340 339 338 335 333 332 332 331 330 332 333 334 338 339 337 338 339 335 329 328 331 333 334 335 336 337 340 341 343 342 340 339 341 345 349 351 353 354 354 352 350 348
359 360 361 361 362 364 365 366 366 365 365 365 365 366 365 364 363 361 358 356 356 355 355 356 356 356 356 357 356 355 355 354 351 348 347 348 351 353 354 354 351 348 345 342 340 339 337 336 334 333 332 333 334 335 336 337 339 341 343 341 337 334 336 338 338 339 340 341 343 345 345 344 343 342 345 347 349 350 351 352 354 354 353 351 349
359 360 360 360 362 363 364 366 366 366 365 366 366 365 365 364 363 362 360 358 356 355 356 356 357 357 357 357 357 357 356 355 354 352 349 348 350 352 354 354 351 350 348 346 343 342 339 337 336 336 336 338 338 339 339 339 341 343 344 342 342 345 346 346 344 343 342 343 346 346 346 346 346 347 349 350 351 352 353 354 354 354 352 350 349
359 359 360 360 360 361 362 365 365 366 366 365 365 365 365 364 363 362 361 359 358 357 357 357 357 357 357 357 357 357 357 356 355 354 352 350 350 351 353 353 351 351 351 348 345 343 340 338 338 338 340 342 344 344 344 343 344 344 344 346 348 350 350 348 347 344 344 345 347 348 348 349 349 349 349 350 352 353 353 354 353 351 350 350 348
359 359 359 359 359 359 359 362 364 365 366 365 365 365 365 364 364 362 362 360 359 358 357 357 357 357 357 357 357 357 357 357 356 354 353 352 351 351 351 351 351 352 353 350 349 347 344 342 341 342 344 346 348 349 349 349 348 347 346 348 349 349 349 348 347 347 348 349 350 350 349 349 348 349 350 351 352 353 354 353 351 350 349 348 345
359 359 359 359 359 359 358 359 362 365 365 365 365 365 365 364 364 363 362 361 360 359 359 358 357 358 358 358 358 358 357 357 357 355 353 353 352 352 350 351 352 354 354 353 351 348 344 343 345 347 349 350 351 352 353 353 352 352 350 349 350 351 351 351 351 352 352 352 351 350 348 347 348 350 351 352 352 352 352 350 350 351 350 347 344
359 359 358 359 358 357 358 358 361 364 366 366 365 365 365 364 365 364 363 362 361 360 359 359 358 358 358 358 358 358 358 357 356 355 354 354 353 352 352 352 352 353 354 353 351 348 347 347 349 351 353 353 354 355 355 355 355 354 352 352 352 354 355 355 355 355 353 352 350 349 349 350 352 352 352 351 350 349 349 350 352 352 350 347 344
360 359 358 358 358 357 357 358 361 364 366 366 366 366 365 365 365 364 363 362 362 361 360 360 359 358 358 357 358 358 358 357 356 355 353 352 350 350 350 350 350 351 352 351 350 350 350 351 352 354 355 356 356 356 357 357 357 356 354 354 355 356 358 358 357 357 355 354 354 354 354 354 354 353 352 351 351 350 351 352 352 351 350 346 339
363 362 360 359 360 361 359 358 362 365 365 366 366 366 365 366 365 365 364 364 363 362 361 361 360 359 358 358 358 358 358 357 356 353 351 347 345 345 346 347 347 349 351 350 351 353 353 354 355 356 356 357 357 357 357 357 358 357 356 356 358 359 359 359 359 359 358 357 357 356 357 356 356 355 353 353 352 353 354 353 351 350 347 340 331
363 365 365 362 362 363 361 360 362 365 365 366 366 366 366 365 365 365 364 364 363 363 363 362 361 360 360 359 357 357 357 355 351 347 346 343 342 342 342 342 342 344 345 349 354 356 357 357 357 357 357 358 358 358 358 358 358 358 358 358 359 360 361 361 360 359 358 358 358 357 357 357 357 355 354 353 353 354 354 351 350 349 344 335 325
362 365 367 367 366 364 363 362 362 364 366 366 366 366 366 366 365 366 365 365 364 364 363 363 362 361 360 360 359 358 356 354 350 350 350 348 345 342 342 341 342 342 344 349 355 358 358 359 358 358 358 358 359 359 359 359 359 359 359 359 359 359 360 360 359 359 359 359 358 358 358 357 356 354 354 354 353 353 352 349 346 346 340 330 322
359 363 366 367 368 366 364 363 364 365 366 366 366 365 365 366 367 367 366 366 365 365 365 364 364 363 362 361 360 359 357 356 355 354 353 351 348 345 345 346 347 348 349 352 355 357 358 359 359 359 359 359 359 359 359 359 360 360 360 360 359 358 358 358 358 359 359 358 358 358 357 356 354 354 354 354 352 350 347 343 342 341 336 328 323
356 360 362 365 367 367 365 365 365 366 366 366 366 365 365 365 367 367 367 367 367 366 366 365 364 364 364 363 362 361 359 358 357 356 355 354 352 350 350 351 351 353 355 356 356 358 358 358 358 359 359 360 360 360 360 360 361 361 361 360 359 358 357 357 357 358 358 358 358 358 357 355 354 354 354 351 347 344 341 339 338 336 332 327 324
353 357 359 362 365 367 367 366 366 367 367 366 365 365 365 366 365 366 367 368 367 367 367 366 365 365 365 365 364 363 362 361 359 358 356 354 354 352 353 354 354 355 357 357 358 358 358 359 359 360 360 360 360 361 360 361 361 361 361 360 359 358 357 357 357 357 358 358 357 357 356 354 354 354 351 347 344 342 339 337 335 333 329 327 326
350 354 356 358 361 365 368 368 367 368 368 367 366 366 365 364 364 366 367 368 368 367 367 366 366 366 366 365 365 364 364 364 362 361 359 357 355 354 354 354 355 355 357 359 360 359 359 360 360 361 361 361 361 360 360 360 360 360 360 360 359 359 358 358 358 358 358 358 357 357 356 354 353 353 350 347 344 343 340 336 333 331 330 329 330
348 351 354 356 358 361 365 367 368 367 366 367 366 366 366 365 364 366 367 367 367 367 366 365 365 365 365 366 365 365 365 366 365 363 361 359 357 356 355 355 356 357 358 359 359 360 361 362 362 362 361 361 361 360 360 360 360 360 360 360 360 359 358 358 358 359 358 358 357 356 355 354 353 351 350 348 345 342 337 334 332 331 331 331 332
347 349 351 354 356 358 361 363 365 365 365 364 364 365 367 367 366 367 368 368 367 366 365 364 365 365 363 363 364 365 365 365 365 364 362 361 360 359 358 358 357 357 358 359 359 361 362 363 363 363 362 362 362 362 361 361 360 360 360 360 360 360 359 359 359 358 358 357 357 356 354 352 351 349 349 347 343 338 334 332 332 331 331 332 332
345 347 349 352 355 356 357 359 360 361 363 363 364 365 367 368 368 367 368 369 369 368 367 366 367 365 360 356 356 360 362 364 365 364 362 361 361 359 359 359 358 358 359 360 361 363 364 364 364 364 364 363 362 362 361 362 361 360 359 358 357 357 358 359 359 359 358 357 356 354 351 350 349 348 346 342 338 333 331 332 332 331 331 331 331
343 344 346 349 352 354 356 357 359 359 360 362 364 365 366 367 367 367 368 367 367 367 367 365 364 362 355 346 345 354 361 364 364 363 362 361 361 361 361 361 361 362 362 363 363 364 365 364 364 364 364 364 362 361 361 360 359 357 356 355 355 357 358 358 358 357 356 354 352 350 350 349 347 344 340 336 333 331 332 332 331 330 330 330 330
342 343 343 346 349 351 353 355 357 359 360 362 363 363 365 365 365 365 365 365 365 365 364 362 360 357 350 343 343 352 361 364 364 363 363 362 361 362 363 363 364 365 365 363 363 364 364 364 364 364 364 364 363 362 362 361 359 356 353 351 353 356 358 356 355 354 352 350 349 349 347 344 340 336 334 332 331 331 331 331 331 331 331 330 329
339 341 341 343 346 349 351 353 355 357 360 362 363 363 364 364 364 363 363 363 363 363 363 362 359 354 349 349 351 355 361 364 364 363 363 363 363 364 364 364 364 364 364 363 363 363 364 364 364 364 363 363 362 363 363 361 359 358 356 355 356 357 355 353 351 350 350 348 347 345 342 338 335 333 332 331 331 331 330 330 330 330 330 329 328
337 338 339 341 343 345 348 351 354 356 357 359 360 360 361 362 362 362 362 362 363 363 362 361 359 355 352 356 359 359 360 362 362 361 361 363 363 364 364 364 364 364 364 363 363 364 364 364 364 362 361 360 360 361 361 360 359 357 356 356 356 353 351 348 347 348 347 345 342 339 337 334 332 332 331 331 331 331 330 330 329 330 330 329 329
337 337 337 338 340 341 344 347 350 354 356 356 355 357 359 359 360 361 361 360 361 360 360 360 360 358 357 360 362 363 362 362 361 360 362 363 363 364 363 363 363 363 363 363 363 363 363 363 363 362 361 360 359 358 358 359 358 356 355 354 353 350 348 347 346 344 342 339 336 334 332 331 332 332 331 331 331 331 331 330 330 330 329 329 329
337 337 336 335 335 335 338 343 346 350 352 352 351 353 357 358 358 359 360 359 358 359 358 358 358 359 359 361 362 362 363 363 362 362 362 363 363 363 363 363 363 363 364 363 363 362 362 361 361 360 360 359 357 356 355 356 357 355 353 352 350 348 347 345 342 339 335 333 331 330 331 332 332 332 331 331 331 331 331 330 330 330 329 329 328
335 337 336 335 332 330 332 336 341 344 347 348 347 350 355 356 356 357 358 358 358 358 357 357 358 359 359 360 361 362 363 363 362 363 363 363 363 363 363 363 363 363 361 361 360 359 359 359 358 358 357 355 353 352 351 351 351 350 349 348 347 345 343 341 337 333 331 329 328 328 330 332 333 332 331 331 331 330 330 330 330 329 329 328 328
332 335 336 335 333 329 328 330 334 338 342 343 342 343 349 354 353 354 355 355 354 354 355 355 357 359 360 359 359 359 361 362 362 362 360 359 357 357 356 357 357 358 357 356 356 355 353 353 353 352 352 351 349 348 347 346 345 345 344 343 342 340 338 335 332 330 328 327 327 327 329 331 331 330 330 330 330 329 329 329 329 328 328 327 327
330 333 334 335 334 332 329 328 329 331 335 335 332 332 339 347 349 348 348 348 348 347 348 351 353 355 356 356 356 356 358 359 359 357 355 352 351 350 350 350 350 351 350 349 349 347 346 346 347 347 346 345 345 344 342 341 341 341 340 338 337 335 334 332 330 328 328 327 327 327 328 328 329 329 328 329 328 328 328 328 327 327 327 326 326
329 330 332 333 333 332 330 329 329 331 332 331 327 325 330 340 345 343 342 344 344 342 342 344 347 347 347 347 348 351 354 355 354 353 352 350 349 349 348 347 346 345 345 344 343 343 343 342 342 341 341 340 340 339 338 337 337 336 336 334 333 333 332 331 330 329 328 328 328 328 328 328 328 328 327 327 327 327 327 326 326 326 326 326 326
329 330 330 330 330 330 329 329 330 332 333 333 329 324 324 329 336 338 338 340 341 340 340 341 342 342 341 341 342 345 348 349 348 347 347 346 345 344 343 343 342 341 341 341 340 339 338 337 337 336 336 336 336 335 334 334 333 333 332 332 331 330 330 329 329 328 328 328 328 328 328 328 328 327 327 327 327 327 326 326 326 325 325 325 325
328 329 330 329 327 327 327 327 328 330 331 331 330 328 326 325 328 331 334 336 337 337 338 339 339 339 339 338 338 338 339 339 339 338 338 338 338 338 337 337 337 337 337 336 336 334 333 332 332 332 333 333 332 331 330 330 330 329 329 329 328 328 327 327 327 326 326 326 327 327 327 327 327 327 327 327 326 326 326 325 325 324 324 323 323
326 327 328 328 326 326 326 326 326 326 327 327 328 329 330 329 328 328 331 332 333 332 332 333 334 334 334 334 334 333 333 333 332 332 332 332 333 333 333 334 334 333 333 332 331 330 330 329 329 329 329 329 328 328 328 328 328 327 327 326 326 326 326 326 326 326 326 326 326 326 326 326 326 325 325 325 324 323 323 323 323 322 322 321 321
324 325 326 326 324 323 324 325 325 325 326 326 326 326 327 328 328 328 329 330 331 331 331 331 332 332 333 334 333 334 334 333 332 331 330 330 329 330 330 331 330 330 329 329 328 328 327 327 326 327 326 326 326 326 326 326 326 326 326 326 326 326 326 326 326 326 326 325 325 325 325 324 323 322 322 321 321 320 319 318 317 316 316 315 314
Wind_Speed
49 48 48 47 47 47 47 48 48 48 47 46 45 43 41 40 39 37 36 35 33 32 29 28 27 26 25 24 24 23 23 22 23 23 23 22 22 21 20 20 20 19 18 18 18 17 17 18 18 19 20 20 20 21 20 19 19 17 15 13 10 9 8 8 10 9 4 3 4 3 4 8 9 10 11 11 11 12 10 9 9 8 8 9 12
51 49 48 47 47 46 46 47 48 49 49 48 47 45 44 42 40 39 38 37 35 34 32 30 29 28 28 27 26 25 25 24 24 24 24 23 23 22 22 22 22 21 20 20 19 19 18 18 18 18 18 19 19 21 21 19 18 16 14 13 12 10 10 9 11 12 8 4 4 5 7 11 12 12 13 14 14 13 9 6 7 7 8 10 14
50 49 48 48 47 46 46 47 48 49 49 50 49 47 46 44 42 41 39 38 37 35 34 32 31 30 30 29 28 27 27 26 26 25 25 24 23 23 23 23 23 22 22 21 20 20 20 20 19 18 17 17 17 18 18 16 15 15 15 15 15 13 12 12 12 14 14 10 8 9 12 14 14 14 14 15 15 14 10 7 7 7 8 12 15
50 50 49 48 47 46 46 46 48 49 50 50 50 49 47 46 44 43 41 39 38 37 35 34 32 32 33 32 30 29 29 29 28 28 27 25 24 23 23 23 23 23 23 21 21 21 21 21 20 19 18 19 18 17 17 17 16 17 17 17 17 16 15 14 14 15 17 16 13 13 15 16 15 14 15 16 15 14 11 8 8 8 9 13 16
50 50 49 48 47 47 45 45 47 49 50 50 51 49 48 48 46 45 43 42 40 38 36 35 34 34 34 33 32 30 30 30 30 30 29 28 26 24 23 23 23 23 23 22 21 21 22 21 20 19 20 20 20 19 18 18 17 18 18 18 18 18 16 16 16 16 18 19 17 16 16 16 16 15 15 17 18 16 12 9 10 10 11 13 17
50 50 49 49 49 48 46 45 45 47 48 49 50 50 49 48 47 46 45 43 42 40 38 36 35 34 34 33 33 32 30 30 30 30 30 29 28 27 25 24 23 23 22 22 22 22 22 21 20 20 20 20 20 19 19 18 18 17 18 17 18 18 18 17 18 18 19 19 18 17 16 16 17 16 16 18 20 19 15 12 13 14 14 15 18
49 49 49 49 49 48 47 46 44 44 46 47 48 49 49 49 48 47 46 44 43 41 40 38 36 35 34 34 33 32 31 31 30 30 31 30 29 28 28 26 24 23 23 22 21 22 22 22 21 21 20 20 20 19 19 19 18 18 17 16 16 17 18 18 18 18 18 17 16 16 16 17 18 18 18 19 20 19 16 15 16 17 17 18 20
48 49 49 49 49 49 47 46 44 43 44 45 47 48 48 48 48 47 46 45 44 42 41 39 37 36 35 35 34 33 32 32 31 30 31 31 31 29 28 28 27 25 24 22 21 21 21 21 21 21 20 21 20 20 19 18 18 17 16 15 15 16 17 17 16 16 16 16 15 15 17 18 18 19 20 21 21 19 16 16 17 19 20 20 19
47 47 49 49 48 47 46 46 45 44 44 45 46 47 48 48 47 47 46 45 44 43 41 39 39 38 37 36 35 35 34 34 32 31 30 31 31 30 28 28 28 27 26 24 22 21 21 20 20 20 20 20 20 20 19 18 18 18 17 16 16 16 16 16 16 16 15 16 16 16 18 19 19 20 22 21 22 20 17 16 18 20 21 18 14
46 46 47 48 47 46 45 45 45 45 45 45 46 47 48 48 47 47 47 46 44 43 42 41 40 39 39 38 38 37 36 35 33 31 30 31 31 31 29 28 28 27 27 26 24 23 22 21 20 20 20 20 20 20 20 20 19 18 17 16 15 15 15 16 16 16 16 17 17 17 20 20 19 21 22 21 21 20 17 18 19 19 18 15 12
43 45 46 46 45 45 45 45 45 45 45 45 46 46 47 48 48 48 47 46 45 43 42 42 41 40 40 39 39 39 38 35 33 32 31 31 31 31 30 29 28 28 27 27 26 24 22 22 21 20 20 20 20 20 20 20 20 18 16 14 13 13 14 15 16 16 17 18 18 19 20 20 20 20 20 18 18 18 17 17 17 16 16 16 13
42 43 44 44 44 44 44 44 44 45 45 45 45 46 46 47 48 48 48 47 45 44 43 42 42 41 40 40 40 40 38 36 33 32 32 31 31 31 30 30 29 28 28 27 27 26 24 23 22 22 21 21 21 21 21 21 21 19 16 15 15 16 16 16 17 17 18 19 20 20 20 20 21 19 16 14 13 15 15 14 14 14 15 16 15
42 42 43 43 44 44 43 43 43 44 44 44 44 45 46 48 48 48 48 47 46 45 44 42 42 41 42 42 41 40 38 36 34 34 33 32 31 31 31 30 29 28 28 27 27 26 25 24 23 22 22 21 21 21 21 22 22 20 18 18 18 19 19 19 18 18 19 20 20 20 19 20 21 16 11 11 13 13 14 13 13 14 15 15 16
43 42 42 43 43 43 43 42 42 42 42 43 43 45 46 47 48 48 48 47 47 46 45 43 42 42 42 42 42 41 39 36 34 34 33 32 32 32 32 32 31 30 28 28 27 26 25 25 24 23 22 21 21 21 21 22 22 21 20 21 21 21 21 20 19 19 20 20 20 21 20 19 19 16 11 12 14 14 13 13 13 14 15 16 16
44 42 42 43 43 43 43 42 41 41 40 41 43 44 46 47 47 48 48 48 48 47 46 44 43 42 42 42 42 41 39 36 35 34 33 32 32 32 33 33 33 32 31 30 29 28 27 26 26 25 24 23 22 21 21 21 22 22 22 23 23 23 22 21 20 20 20 21 21 22 22 21 19 17 15 15 16 15 13 13 14 14 15 15 15
44 42 41 41 42 43 43 42 42 41 40 41 42 44 45 47 47 48 48 48 48 47 46 45 44 42 41 42 43 42 39 37 35 34 32 30 30 32 33 34 35 35 34 32 31 30 29 28 28 27 26 25 23 22 22 22 23 24 24 23 23 24 23 22 22 22 22 22 23 23 23 22 21 20 18 17 17 15 14 14 14 14 15 15 14
43 42 40 40 41 43 44 43 43 42 41 41 43 43 44 45 47 47 48 48 48 48 47 46 45 43 42 42 42 42 40 38 36 35 32 30 29 30 31 33 35 35 35 34 32 31 31 30 29 28 28 26 24 23 22 22 24 25 26 26 26 26 25 24 24 25 24 24 24 24 23 22 21 20 19 17 16 15 15 16 15 14 14 15 14
37 38 39 39 40 42 44 44 44 43 43 43 43 43 43 44 45 46 48 49 48 48 47 46 45 44 43 42 42 42 41 39 37 36 34 32 30 29 29 30 32 34 34 34 34 33 32 31 30 30 30 28 26 25 24 23 24 26 27 28 29 29 26 25 25 25 24 23 23 23 22 22 21 21 20 18 16 16 17 16 15 14 15 16 15
28 31 35 39 40 42 44 46 45 45 45 44 44 43 43 43 44 45 47 48 48 48 47 46 46 46 45 43 42 41 41 40 39 37 36 34 32 30 29 29 30 30 31 32 33 33 32 31 31 31 30 29 28 27 26 24 24 25 25 26 29 28 25 23 23 22 22 22 23 23 23 23 24 23 21 18 16 17 17 16 16 16 16 17 16
20 21 26 33 39 43 45 47 48 46 45 45 44 44 43 43 43 44 46 47 47 47 47 47 47 46 46 45 44 42 41 41 40 39 37 36 35 33 31 31 30 29 29 29 30 30 30 30 30 30 29 29 29 29 28 27 26 26 25 26 27 25 22 21 22 22 23 24 25 25 25 26 26 25 21 18 16 16 16 16 16 16 17 18 18
20 18 18 24 34 42 46 48 49 47 45 45 44 44 44 44 44 44 45 46 47 47 47 47 46 46 46 46 45 44 43 41 40 39 39 38 37 35 34 34 33 31 30 29 29 29 28 27 27 27 27 27 28 29 29 29 29 28 28 29 28 26 25 26 26 26 26 27 27 27 28 28 27 25 21 18 17 16 16 15 15 16 17 18 18
22 21 20 21 26 35 43 48 49 48 46 45 46 46 45 44 44 44 44 45 46 47 47 46 46 46 46 46 47 46 44 43 41 40 39 39 39 38 37 36 35 34 33 32 31 30 28 26 25 24 24 25 26 28 30 31 31 31 31 31 30 29 29 29 29 29 30 30 29 29 29 29 27 25 22 20 19 18 17 16 16 18 18 18 17
23 23 24 24 25 29 36 42 47 48 47 46 47 47 46 45 45 44 44 45 45 46 47 46 46 46 46 47 47 47 45 44 43 41 40 39 40 40 39 39 37 36 36 35 33 31 28 27 25 24 23 24 25 26 28 31 33 34 34 33 33 33 33 33 33 32 31 31 30 30 29 28 27 25 24 23 22 21 20 20 21 21 18 16 15
24 25 26 27 27 28 31 36 42 47 48 47 47 47 47 46 45 45 45 45 45 45 46 47 47 47 47 47 47 47 46 45 44 43 42 41 41 41 41 40 39 38 37 36 35 33 31 29 27 25 25 25 24 25 26 28 30 32 33 34 34 34 33 32 31 30 29 29 29 29 28 26 25 25 24 24 24 24 24 24 23 20 16 14 14
24 25 26 28 29 30 31 33 38 44 48 48 47 47 47 46 46 45 44 44 45 45 46 47 48 48 48 47 47 47 46 45 45 44 43 42 41 41 41 41 40 39 38 37 36 35 32 31 29 27 26 26 25 25 26 26 27 27 28 29 28 27 26 25 25 25 26 27 26 25 24 22 21 21 22 22 23 24 24 22 20 17 15 14 14
25 25 26 27 29 30 31 33 38 43 47 48 47 47 47 46 46 45 45 45 45 46 47 48 48 48 48 48 47 47 46 46 46 45 44 43 42 41 41 42 41 41 41 41 40 38 36 34 32 30 28 27 27 27 27 27 26 26 25 25 24 23 22 22 22 23 24 23 22 21 18 17 17 19 20 21 22 21 20 18 16 15 15 15 15
25 26 26 26 26 28 31 34 39 43 46 47 46 46 46 46 46 46 46 46 46 47 47 47 48 49 50 49 47 46 46 47 47 46 45 44 41 40 39 39 39 39 40 40 39 38 37 35 33 31 30 30 29 29 29 28 27 25 24 23 22 22 21 21 22 22 21 21 20 19 18 17 18 18 18 18 18 17 16 15 15 15 16 15 14
24 25 26 26 25 27 32 35 39 43 46 46 46 45 45 45 46 47 47 46 46 46 47 47 48 49 50 49 48 46 47 48 48 47 45 42 39 37 36 34 34 35 36 35 34 35 35 34 34 34 33 32 31 31 30 29 28 26 24 23 22 22 22 23 23 23 22 22 21 21 20 19 18 18 17 16 15 15 15 15 16 17 16 14 14
24 24 25 26 25 28 33 37 40 43 45 46 45 45 45 44 45 46 46 45 45 45 45 46 47 48 48 49 48 48 50 50 48 45 43 40 38 35 33 31 31 31 31 30 30 32 34 34 35 35 35 34 33 33 31 30 29 28 27 25 25 25 25 26 26 26 24 24 24 23 21 20 20 19 17 15 14 15 17 18 18 18 16 14 15
24 23 23 24 25 28 34 38 41 43 45 46 45 44 43 44 44 45 45 44 44 44 44 44 44 45 47 48 49 50 51 50 47 45 44 42 39 36 33 30 29 28 27 27 29 33 35 35 36 36 35 34 34 33 32 31 30 29 29 28 28 28 28 27 27 26 26 26 25 24 22 21 21 19 17 16 16 17 18 18 19 19 17 15 16
25 24 22 20 22 27 33 37 41 43 45 45 45 44 43 44 44 44 44 43 42 43 42 41 41 42 45 46 47 48 49 49 47 46 45 42 39 37 35 33 32 30 27 28 31 35 36 36 37 36 35 34 33 31 30 29 29 29 28 28 28 29 30 30 29 27 27 27 26 24 22 21 19 18 17 17 17 18 18 19 20 19 16 15 16
25 26 23 19 19 24 31 35 39 43 45 45 45 45 45 45 44 44 44 43 42 42 41 39 39 41 44 44 45 46 47 47 47 47 45 43 41 39 37 35 33 31 30 31 34 36 36 37 37 36 34 34 32 29 27 27 28 27 27 27 27 26 27 28 27 26 25 25 24 23 21 18 17 17 18 18 18 19 20 20 18 16 14 14 15
24 26 25 22 18 20 27 33 37 42 45 47 47 46 45 45 45 45 44 44 43 42 41 40 39 40 42 43 43 44 44 44 45 46 46 45 43 40 38 36 34 33 32 34 36 36 36 36 35 34 33 32 31 30 29 28 26 24 24 25 24 22 21 21 21 22 22 21 21 20 18 15 15 17 19 20 20 20 20 17 15 13 13 13 14
21 23 25 25 21 19 25 32 36 39 42 44 45 46 46 44 44 46 46 45 44 44 43 42 41 40 40 40 40 41 42 41 41 42 42 43 42 41 40 38 36 35 34 34 34 34 33 33 33 32 32 32 32 31 29 27 24 22 22 22 20 19 19 19 20 21 20 20 19 18 16 15 15 17 19 21 21 20 18 15 14 14 13 13 14
19 19 21 24 26 25 26 31 35 38 40 41 41 43 45 45 45 47 47 46 46 45 43 41 40 40 38 37 36 37 38 38 38 38 38 39 39 40 40 40 38 36 35 34 33 33 32 32 33 32 31 31 31 28 25 24 24 22 22 21 20 19 19 19 20 20 20 19 19 18 17 16 16 16 18 19 19 18 16 16 15 14 13 13 14
15 16 17 20 26 28 28 30 33 35 38 40 41 43 46 47 47 47 47 46 47 46 44 42 42 40 36 33 32 32 34 36 37 37 36 37 37 38 39 40 39 36 35 34 33 32 31 31 32 30 28 28 28 26 25 24 22 19 18 19 20 20 20 21 20 20 20 20 20 20 19 17 16 17 18 19 17 16 16 17 16 15 14 15 16
12 13 13 18 25 29 29 30 30 31 34 39 42 45 47 46 45 45 46 46 46 46 45 45 44 41 35 30 29 30 32 35 36 36 36 36 37 36 36 36 35 34 33 33 31 31 30 30 29 29 27 26 25 24 22 21 18 15 16 20 22 23 23 23 24 24 23 23 23 21 19 17 17 18 18 18 19 19 18 17 16 15 15 16 16
10 12 13 15 21 26 29 29 29 31 35 39 42 45 48 48 45 45 46 46 45 45 45 45 45 41 35 31 29 29 31 34 36 37 37 36 37 37 36 35 33 32 31 30 30 30 29 29 28 28 27 26 23 19 17 17 15 13 16 20 23 26 28 29 30 29 27 24 21 19 18 17 17 17 19 21 22 20 18 18 18 17 16 16 16
8 9 12 14 17 22 27 28 29 31 35 39 41 44 48 49 47 46 46 45 44 43 43 43 42 39 35 32 30 29 30 34 35 37 38 38 38 37 36 35 33 32 31 30 29 30 30 30 29 28 27 25 22 20 20 20 18 15 17 20 24 29 33 33 31 28 24 21 19 18 17 16 15 16 19 21 20 18 18 18 19 18 17 17 18
11 8 10 13 15 19 24 27 29 31 35 39 43 45 47 47 46 46 46 45 44 43 43 42 41 39 36 34 32 31 31 33 35 37 39 40 39 37 36 35 34 33 31 30 30 30 30 29 28 27 25 24 24 24 25 25 22 19 20 23 26 29 30 27 24 22 20 19 19 18 18 17 16 17 18 18 18 17 18 18 18 17 18 18 18
15 11 10 12 14 16 21 25 29 32 35 39 42 44 45 45 45 45 45 44 42 41 41 41 42 40 37 36 35 35 33 32 33 36 38 39 38 37 35 34 33 32 31 31 30 30 30 29 29 27 24 22 23 25 25 24 22 19 19 22 25 25 23 21 20 20 20 20 20 20 19 19 18 17 17 18 18 17 18 18 17 17 17 16 16
15 14 11 11 12 14 17 22 27 32 35 37 39 40 42 43 44 44 43 42 41 41 42 43 43 42 39 36 37 37 35 33 33 36 37 37 37 36 35 34 33 32 31 31 30 31 31 31 30 27 24 22 24 26 26 25 23 20 20 21 22 21 20 19 20 20 20 20 21 20 19 18 18 17 17 18 19 18 18 17 17 16 16 16 16
13 13 12 11 10 11 13 18 23 29 32 32 34 37 40 42 43 43 43 41 41 41 42 43 43 42 40 38 38 39 37 35 36 38 38 37 36 35 34 34 33 32 32 32 31 30 29 28 25 23 22 23 24 24 23 22 20 19 19 20 20 19 19 19 19 19 19 20 21 20 19 18 18 17 17 18 18 19 18 18 17 17 17 17 17
11 10 11 10 9 7 9 14 19 24 26 26 27 32 38 42 43 44 44 43 42 42 43 43 42 42 42 41 42 42 40 38 38 39 39 39 39 38 37 36 35 33 32 31 30 28 25 24 22 20 20 20 19 18 17 17 16 17 17 17 17 18 19 19 18 18 18 17 17 18 19 19 17 16 16 17 18 18 18 18 17 17 16 16 16
10 9 9 9 8 6 3 5 11 17 22 24 24 27 35 41 41 40 41 41 40 41 42 43 42 43 44 43 41 40 39 39 38 37 37 37 36 36 35 35 33 32 29 27 25 23 21 20 18 17 17 18 17 16 15 14 14 14 15 15 16 17 18 18 17 16 16 15 14 16 18 18 17 16 16 17 18 18 17 17 17 16 16 16 16
8 7 8 8 8 7 7 5 2 7 15 19 19 22 29 37 39 37 38 40 40 40 42 42 42 43 43 41 39 37 35 34 32 31 30 29 28 26 25 24 24 23 22 21 19 18 17 15 14 15 16 17 16 15 15 14 14 15 15 16 16 17 17 17 16 15 15 15 15 16 17 18 17 16 16 16 17 17 17 16 16 16 16 17 17
7 6 5 6 6 5 7 10 9 7 8 11 13 18 26 34 38 37 38 40 41 41 41 42 41 40 38 37 36 34 31 29 27 27 27 26 24 22 21 19 17 16 16 15 15 13 12 11 12 13 15 16 15 15 15 15 15 16 16 16 16 16 16 16 15 15 15 16 16 17 17 17 17 16 16 16 17 17 17 17 17 17 17 17 18
6 5 4 4 6 5 6 10 12 13 12 11 11 15 21 28 34 37 38 39 39 38 38 37 37 35 33 32 32 31 30 28 27 27 26 25 23 21 19 17 15 14 14 14 13 12 12 12 13 14 15 15 15 15 16 16 16 16 15 15 15 15 15 15 15 15 15 16 16 16 16 16 16 16 17 17 17 17 18 18 18 18 18 18 18
5 4 3 1 5 7 8 10 13 15 16 17 16 16 19 23 28 31 32 33 33 33 33 33 32 30 29 29 28 27 27 27 26 25 24 22 20 18 16 15 14 13 13 14 15 15 15 15 15 14 14 14 14 14 15 15 15 14 14 14 15 15 15 15 15 15 15 15 15 14 15 15 16 16 16 17 17 17 17 17 17 17 17 18 18
5 3 2 1 4 7 8 9 12 14 16 19 21 21 21 22 26 28 28 27 26 25 25 26 25 24 23 22 20 19 19 19 19 19 20 20 19 18 16 15 15 15 15 15 16 17 17 17 16 15 14 13 13 13 13 13 13 12 12 13 13 13 13 13 12 12 12 12 12 12 12 12 12 12 13 13 14 14 15 16 16 17 17 17 17
3 2 1 1 4 6 7 8 10 12 13 16 19 21 22 23 24 25 27 26 25 24 24 24 23 22 20 18 16 14 14 13 14 14 15 17 18 18 17 17 16 16 16 16 16 16 16 15 15 14 13 12 12 12 11 11 11 11 11 11 12 12 11 11 11 11 11 10 10 10 11 11 11 12 12 12 13 14 14 15 15 15 14 14 14
Wind_Direction
220 222 223 224 225 226 226 224 222 221 222 223 225 227 229 229 230 231 233 235 236 237 237 236 235 234 232 230 226 222 219 219 221 223 224 223 224 226 224 223 224 222 219 220 220 220 220 218 218 216 216 219 222 226 231 239 248 251 252 254 262 276 284 289 293 291 284 277 278 286 308 320 333 339 338 344 347 345 345 343 338 344 1 13 12
219 221 223 224 225 227 227 227 226 225 224 225 226 228 230 231 232 233 234 235 236 237 238 237 236 235 233 232 230 225 221 219 220 222 225 225 224 225 225 225 227 226 223 222 221 222 224 225 226 227 226 226 225 226 230 239 248 253 255 260 268 274 278 287 295 297 297 297 295 308 327 333 340 346 344 346 350 348 345 345 346 354 4 6 6
219 221 223 225 226 226 228 229 229 228 227 226 227 229 231 232 234 234 235 236 237 238 239 239 238 236 234 233 232 229 225 221 220 222 225 227 226 225 226 226 227 228 228 226 223 224 227 229 231 234 236 237 234 233 237 243 251 257 261 267 273 276 277 281 287 293 299 307 315 325 331 333 338 344 343 344 347 343 339 343 343 340 347 353 359
219 221 223 225 226 226 227 229 229 229 229 229 229 229 230 232 234 235 236 237 238 239 240 240 239 237 234 232 232 232 229 225 223 223 225 228 229 228 227 228 228 229 230 230 227 228 230 231 232 234 238 242 243 242 244 247 251 257 260 265 270 273 276 278 280 287 293 300 312 322 325 327 333 341 341 340 342 342 336 335 335 333 337 345 351
219 220 223 225 226 226 227 229 229 230 230 231 231 231 231 232 233 235 236 237 239 239 240 239 239 237 234 232 232 233 232 229 226 224 225 227 230 230 230 231 231 231 231 231 231 231 233 235 235 236 238 242 243 243 245 248 251 255 258 261 265 269 271 273 275 280 285 293 304 312 316 321 328 337 340 336 337 340 337 332 336 336 336 341 346
218 220 222 224 225 226 227 229 230 231 232 232 232 232 232 232 233 234 236 237 238 239 239 239 238 237 235 233 233 234 234 233 230 228 227 227 229 231 231 232 234 235 234 232 231 232 234 236 236 239 242 243 243 243 244 248 252 255 257 260 263 266 267 268 271 274 278 285 295 303 312 319 324 331 336 333 333 336 334 334 339 338 336 340 342
217 219 221 223 225 227 228 229 231 232 233 234 233 233 232 233 233 234 235 236 237 238 238 238 238 238 236 235 234 235 236 236 235 231 229 229 229 230 231 232 233 235 236 234 232 232 234 236 237 239 243 247 247 247 247 250 254 256 258 260 262 262 263 264 266 268 272 278 287 299 310 317 321 327 331 331 331 332 329 328 335 338 335 334 334
217 218 220 223 225 228 230 231 232 234 235 234 234 234 233 233 233 234 235 235 236 237 238 238 238 238 237 236 236 236 237 238 238 235 232 230 230 230 231 231 232 233 236 236 236 235 235 236 238 240 242 247 248 249 250 252 254 257 258 260 262 262 262 264 264 265 269 276 287 299 308 313 319 324 327 328 329 330 325 322 329 333 332 332 332
217 218 220 223 226 229 231 232 234 235 236 235 235 235 234 233 234 234 234 235 235 236 237 238 239 238 236 235 235 236 237 238 238 237 235 232 230 230 230 230 232 234 236 238 239 240 238 237 239 241 244 245 246 246 248 251 254 257 260 262 264 265 265 267 267 268 272 279 289 300 305 310 318 322 324 327 327 326 322 318 322 324 326 333 342
218 219 221 224 227 229 231 233 235 235 236 236 236 236 234 233 233 233 234 235 235 236 236 237 238 238 237 235 235 235 236 238 238 238 236 234 232 231 231 230 231 233 235 238 241 242 242 241 241 243 244 245 245 245 247 249 251 255 258 261 262 264 267 269 268 271 277 282 290 299 303 309 319 322 323 325 325 321 313 310 314 318 321 332 352
220 221 223 226 228 230 232 234 235 236 237 237 238 237 235 234 233 233 234 234 235 235 235 235 236 237 237 236 235 235 236 237 237 237 237 236 235 235 234 234 233 234 235 236 239 242 244 245 244 244 243 244 245 246 248 249 249 250 252 254 259 263 267 270 270 273 278 283 290 296 300 308 317 321 322 324 321 314 307 306 310 315 320 327 343
223 225 226 228 229 231 234 235 236 237 238 238 238 237 236 234 233 232 233 234 234 234 235 235 236 236 236 236 236 237 237 238 238 238 237 236 236 236 237 238 237 238 237 237 240 243 245 246 247 246 245 245 246 246 247 247 246 244 243 249 257 261 263 267 270 273 278 283 288 292 298 307 313 317 319 316 309 304 302 304 306 311 318 324 335
223 226 227 229 231 233 235 237 238 238 239 239 239 238 236 234 233 232 232 233 234 234 235 235 235 236 236 236 237 237 239 240 240 240 239 238 237 237 238 240 241 241 241 242 243 245 246 248 250 250 250 249 249 248 246 244 244 242 242 246 252 256 260 264 267 270 274 279 284 290 299 306 307 308 308 299 295 296 297 302 306 310 317 325 332
222 224 227 229 231 233 235 237 239 240 240 240 239 237 236 234 233 232 231 232 233 234 235 235 235 235 235 236 237 238 240 241 241 242 242 240 239 239 239 241 242 243 244 245 246 247 248 250 252 254 254 254 254 253 250 247 246 245 246 250 253 257 261 263 264 267 271 276 283 291 300 303 300 297 293 289 291 293 296 302 308 311 317 325 330
222 223 225 228 231 233 235 237 239 241 241 240 239 238 236 235 234 232 231 231 232 233 235 236 235 235 235 235 237 238 240 241 242 243 243 243 242 242 242 243 244 246 247 247 249 250 251 252 254 255 256 257 257 257 256 253 251 249 249 251 253 256 258 260 262 266 271 278 284 289 295 295 292 291 291 291 291 291 293 298 304 309 316 324 329
224 225 226 227 230 233 236 237 239 241 242 241 240 239 237 235 233 232 231 230 232 233 235 236 236 235 235 235 236 238 240 241 242 243 243 243 244 244 244 245 246 247 248 249 249 250 251 253 254 255 256 256 255 256 257 257 255 253 251 251 252 254 256 258 262 266 271 276 279 283 287 289 289 292 295 292 290 289 288 290 298 307 312 318 323
224 227 230 231 232 233 236 238 239 240 241 241 241 240 239 237 234 233 231 230 231 232 233 235 236 236 235 234 235 238 240 241 242 242 243 242 242 244 245 246 247 248 249 249 249 249 250 251 253 254 254 254 253 254 256 256 256 254 251 252 253 254 257 259 261 265 269 273 275 278 283 286 290 295 296 291 286 283 280 285 295 300 302 307 314
229 231 233 234 234 234 237 239 240 240 240 242 243 242 240 238 236 234 232 230 231 232 232 234 235 236 236 235 235 238 241 242 243 243 243 242 241 242 244 245 247 248 248 248 248 248 248 248 251 253 253 253 252 252 253 254 254 253 251 252 253 254 257 260 263 266 269 271 274 277 283 288 293 295 294 289 283 276 274 280 287 289 293 300 304
240 241 240 239 238 237 238 239 240 241 242 243 243 243 241 240 238 236 233 232 231 232 232 233 234 235 236 236 237 238 241 243 244 245 245 244 242 241 242 243 245 247 247 247 248 248 247 247 248 250 252 254 254 255 254 252 252 252 252 253 254 257 261 264 267 271 273 274 277 282 286 290 291 290 289 285 279 274 273 277 281 283 290 296 297
254 257 252 247 244 240 239 238 239 241 243 243 243 243 242 241 238 237 234 232 231 231 232 233 233 234 235 236 237 239 240 242 244 246 246 245 243 242 241 241 243 245 246 247 247 248 247 247 248 250 253 255 257 259 258 255 254 256 255 255 258 264 270 274 275 277 279 280 282 284 286 286 286 286 285 281 276 272 272 276 278 281 287 292 294
262 264 261 255 248 243 240 238 239 240 242 244 243 242 241 240 238 237 235 232 231 230 231 232 233 234 235 236 237 239 240 241 243 245 246 246 244 242 241 242 244 246 248 248 248 248 248 249 250 252 255 259 261 262 262 261 260 259 259 261 266 272 277 279 279 280 280 281 281 282 282 283 284 285 285 283 279 277 277 278 279 282 287 289 288
262 261 257 256 252 246 241 238 237 238 240 240 240 240 239 238 237 237 236 233 231 230 230 231 233 234 235 236 237 238 239 240 242 244 245 245 245 243 241 243 246 248 249 251 251 251 253 254 256 257 259 262 264 265 266 266 265 263 263 266 269 271 273 275 278 279 279 279 279 279 280 280 282 284 284 283 282 280 279 278 279 286 289 286 280
260 259 254 252 252 250 245 241 238 237 237 236 237 237 237 236 235 235 235 233 231 230 230 230 231 233 235 235 236 237 238 240 241 243 244 245 245 244 243 245 247 248 249 252 254 257 260 262 264 264 264 265 265 266 267 267 266 266 267 267 268 269 271 273 274 274 274 275 275 275 277 279 281 283 283 283 283 282 281 281 284 289 288 280 273
261 259 255 251 249 249 249 245 241 238 235 234 234 234 234 235 234 233 233 232 231 230 230 229 230 232 234 234 235 236 237 238 240 243 244 245 245 245 245 246 247 248 250 253 257 260 264 266 268 269 268 268 268 268 267 266 265 265 265 265 265 265 266 267 267 268 268 268 269 271 274 277 280 283 285 286 285 284 282 283 284 284 281 274 272
267 263 259 254 250 248 249 247 243 239 235 232 231 232 232 232 232 231 231 231 230 230 230 229 229 231 232 233 235 236 236 237 238 242 244 245 245 246 246 247 247 248 250 253 257 261 265 267 268 269 268 269 269 269 268 267 267 265 263 260 258 256 256 256 257 260 261 262 264 267 271 276 280 283 284 282 279 277 277 277 277 275 272 270 270
276 271 266 260 253 249 248 246 242 238 234 231 231 232 232 231 231 230 230 230 230 231 231 229 229 230 232 233 234 235 236 237 238 241 243 244 245 245 246 246 246 247 250 254 257 260 262 264 265 265 266 267 267 268 268 269 270 269 264 258 253 250 250 251 253 255 257 260 264 267 271 275 277 277 275 271 268 267 267 268 268 267 266 267 269
283 277 272 266 258 252 248 245 239 234 230 229 229 228 228 230 231 230 230 230 230 230 230 230 229 230 231 232 233 234 236 237 239 241 242 244 245 245 245 244 244 245 247 249 251 254 256 258 259 260 262 264 265 266 267 268 270 270 266 259 254 252 252 254 255 256 259 262 264 266 268 269 269 271 271 265 259 256 256 257 258 258 259 263 263
286 281 273 268 263 256 249 243 236 231 228 227 227 226 225 226 228 231 233 233 231 230 230 230 230 231 232 232 232 233 235 237 239 241 243 244 245 243 242 240 239 238 239 241 244 247 250 253 255 257 258 260 262 263 265 267 270 271 268 262 257 254 253 253 253 255 257 260 261 263 266 267 269 273 271 261 252 249 249 247 245 247 252 256 249
286 283 274 267 263 258 250 241 234 230 228 227 227 227 228 229 231 233 236 238 238 237 235 233 233 233 233 233 233 232 234 237 241 243 245 245 245 243 242 240 238 237 237 239 241 244 247 249 251 253 255 257 259 261 264 266 268 269 268 264 258 254 252 251 252 255 258 260 261 263 266 271 276 276 270 260 250 245 241 237 237 242 247 247 239
286 286 279 270 262 255 248 240 233 229 228 226 224 225 228 231 233 234 236 238 240 240 240 240 240 238 236 235 235 236 237 240 243 244 245 246 248 248 247 246 245 245 245 243 242 243 246 247 249 251 253 255 258 260 262 264 265 265 265 262 258 254 251 250 252 255 257 258 260 262 267 274 279 276 268 257 245 237 232 230 233 239 242 238 233
284 285 284 277 265 252 244 238 233 228 226 225 225 227 228 230 231 232 233 236 238 239 241 243 244 243 241 239 239 239 241 242 244 245 246 248 250 250 251 251 251 251 250 247 245 245 246 247 248 250 251 253 255 258 259 261 262 263 264 264 261 256 252 251 252 254 255 256 258 261 266 272 274 269 260 248 234 226 223 224 228 235 238 234 229
284 282 283 281 267 249 239 234 230 227 225 224 224 227 229 229 229 229 230 232 235 237 240 241 242 242 242 242 242 243 242 242 243 245 247 249 250 252 252 252 252 251 248 247 246 247 248 248 249 249 250 251 252 251 252 254 257 260 263 265 263 258 253 251 253 254 254 256 257 259 264 269 266 257 247 235 225 221 220 223 229 234 233 225 220
286 281 280 278 268 247 236 232 228 226 225 224 224 226 227 228 230 231 229 229 231 235 238 240 240 240 241 242 243 245 246 246 245 245 247 249 251 252 252 252 251 249 246 244 244 245 246 248 249 249 249 249 248 247 248 252 255 258 262 265 265 260 255 254 255 254 254 255 256 259 263 264 258 249 239 230 226 224 225 226 227 225 219 214 212
288 282 279 277 271 249 231 225 223 221 219 219 222 226 228 230 233 233 230 228 229 231 234 237 238 239 239 241 242 245 247 248 248 248 249 250 251 252 251 250 249 246 243 241 241 242 243 244 245 245 245 246 248 248 250 252 254 257 263 269 269 263 257 256 256 255 254 254 255 259 261 255 250 247 240 233 231 232 229 223 216 214 214 212 209
290 284 281 278 273 259 237 226 223 222 220 218 220 225 230 233 234 234 232 230 231 232 233 235 237 237 237 239 243 245 246 247 249 251 250 250 250 249 248 247 246 243 241 240 239 240 240 240 242 242 241 243 247 248 249 252 253 255 260 268 270 263 257 256 257 257 256 255 256 260 256 246 240 242 242 240 240 236 224 212 211 217 218 210 207
294 285 277 273 271 266 252 239 233 229 227 227 226 227 230 232 233 234 234 233 233 235 236 236 235 234 233 236 242 246 248 248 248 249 249 247 246 245 244 244 244 242 242 240 239 238 237 238 241 242 241 241 245 246 247 248 250 252 260 268 271 266 258 254 254 254 252 252 253 252 245 236 234 240 243 242 237 225 212 209 215 221 219 214 213
302 291 276 264 263 264 260 253 246 238 233 232 230 228 229 230 232 234 235 234 234 235 236 236 234 230 228 231 237 243 245 244 243 244 244 243 241 241 241 241 240 238 238 237 236 235 235 236 238 241 242 243 243 242 243 243 243 248 258 263 266 266 260 254 251 248 245 245 244 239 233 233 240 244 241 230 217 208 206 210 216 219 219 219 217
300 295 285 268 259 258 257 254 249 242 238 236 235 234 234 234 233 234 237 238 237 235 234 235 235 231 229 231 235 238 239 239 238 239 239 238 236 235 235 234 233 232 233 234 234 234 235 235 236 239 244 247 244 240 240 241 241 245 255 259 263 264 259 250 245 242 238 236 233 229 231 239 242 237 226 216 209 206 205 208 213 216 217 214 209
304 293 285 274 263 258 256 252 246 240 237 236 237 237 238 237 235 235 237 239 238 236 235 235 233 231 231 232 232 232 233 233 234 236 237 236 233 231 229 228 227 227 229 231 233 233 233 234 236 238 242 246 246 241 239 236 233 238 249 255 260 261 253 242 237 235 232 228 227 229 234 234 226 216 210 206 204 203 205 210 215 216 212 206 204
327 308 286 274 264 258 257 254 249 242 238 236 236 236 236 236 236 237 237 238 238 238 236 233 230 230 231 230 228 227 226 226 230 235 235 233 229 224 222 222 223 226 229 231 232 231 231 233 236 237 239 244 246 244 240 236 232 237 246 249 253 255 248 235 226 225 225 224 225 226 224 216 205 200 200 200 200 205 212 215 214 211 208 207 209
338 328 305 282 266 255 251 248 244 240 238 238 237 235 235 235 236 235 234 234 234 234 231 227 225 226 227 227 226 225 221 220 226 229 228 225 222 219 219 221 224 227 230 230 230 230 231 232 233 232 233 241 247 247 243 239 237 244 253 253 250 246 237 223 216 218 222 222 219 215 213 208 200 195 197 202 205 209 212 211 208 207 209 213 219
349 343 330 305 283 268 258 248 240 235 233 234 235 235 234 234 233 231 229 228 227 227 225 222 221 221 220 219 221 221 217 214 216 218 217 218 219 219 220 222 224 225 227 227 228 229 230 230 230 229 229 238 247 246 240 235 236 245 254 250 239 230 222 217 218 220 220 216 210 206 206 204 199 198 202 206 207 208 210 211 213 217 222 228 235
359 353 345 330 309 289 274 258 243 233 227 223 224 229 232 231 227 224 222 221 221 221 220 217 214 213 211 211 214 216 212 207 207 210 213 216 219 219 220 222 222 222 223 223 224 226 227 227 228 231 235 241 244 240 233 229 231 238 241 235 227 222 219 217 215 212 209 207 204 202 202 202 203 206 209 210 209 211 213 218 224 229 235 240 244
4 5 356 345 337 317 286 264 245 230 219 210 205 210 218 222 221 219 218 218 217 217 217 214 211 209 206 204 206 208 204 199 200 206 210 213 214 215 215 216 216 217 217 216 216 219 221 222 225 230 235 236 233 229 225 223 224 227 228 225 223 222 217 212 206 202 200 201 203 203 204 207 212 215 214 211 211 213 217 222 227 232 237 242 248
355 16 18 5 1 11 356 275 243 220 204 192 183 188 199 205 207 207 207 206 205 205 204 204 204 204 201 199 199 199 197 195 197 201 204 205 205 204 202 202 203 204 204 204 204 206 209 212 215 218 218 217 215 213 212 210 210 213 215 215 214 211 206 202 201 201 201 204 208 209 209 211 213 213 211 211 212 216 220 225 230 235 242 248 255
335 7 36 31 16 26 60 83 160 200 186 173 159 157 171 183 187 185 183 183 183 181 180 183 187 191 193 193 193 192 190 189 191 195 198 199 197 194 192 190 190 191 191 189 189 191 193 197 203 207 206 203 200 198 195 193 193 196 198 200 201 201 201 203 205 207 208 210 211 210 209 209 209 210 213 216 220 225 229 234 239 244 249 255 260
330 340 28 57 50 40 68 92 104 119 141 148 136 129 143 163 173 171 167 169 171 168 166 168 173 175 175 175 175 176 176 179 183 187 191 193 191 189 187 184 181 179 179 177 176 180 185 189 194 197 195 191 187 186 186 186 188 190 192 194 197 201 205 209 211 212 212 212 211 210 211 212 215 219 224 229 233 237 241 246 250 254 259 263 267
331 320 336 55 86 90 87 97 107 110 111 117 119 113 121 140 154 157 156 158 161 161 159 160 163 164 163 161 161 163 166 171 176 180 182 183 181 177 175 172 170 170 171 170 170 172 176 178 181 184 184 182 180 181 181 181 182 185 189 193 197 199 201 203 204 205 207 208 211 213 216 220 226 232 236 241 246 250 254 257 260 263 266 269 272
325 310 302 23 89 99 99 99 104 109 111 115 119 115 110 115 126 134 140 145 149 151 153 156 157 158 158 157 155 154 155 158 160 162 162 161 160 157 155 154 155 159 163 163 163 163 164 166 170 174 176 175 174 173 174 175 177 179 181 184 188 191 192 194 196 199 202 207 212 217 223 229 236 241 246 251 256 260 263 266 268 271 273 275 277
323 314 281 139 98 99 103 104 107 111 115 117 119 119 117 113 113 116 122 128 131 132 134 136 136 137 137 135 132 130 132 135 139 140 141 141 141 142 144 147 150 154 158 160 161 162 163 163 165 169 171 172 172 173 174 176 177 178 180 182 185 188 192 196 201 207 214 221 227 233 239 244 249 254 259 263 268 271 273 273 273 273 274 275 276
335 326 313 88 94 101 112 115 113 114 117 118 117 117 118 119 119 119 122 126 128 128 128 127 126 125 123 121 119 119 123 129 136 139 139 140 141 141 143 145 148 151 154 156 158 159 161 161 162 166 169 171 173 176 178 181 183 186 189 193 197 200 204 210 217 225 231 237 243 247 251 256 260 264 266 268 271 274 274 273 271 270 271 271 272